Tracking 23732 objects as of 28-Sep-2021
HD Live streaming from Space Station
objects crossing your sky now

DELTA 1 DEB

Track DELTA 1 DEB now!
10-day predictions


NORAD ID: 12168
Int'l Code: 1978-026H
Perigee: 799.4 km
Apogee: 1,055.0 km
Inclination: 98.9 °
Period: 103.4 minutes
Semi major axis: 7298 km
RCS: 0.1563 m2 (medium)
Launch date: March 5, 1978
Source: United States (US)
Launch site: AIR FORCE WESTERN TEST RANGE (AFWTR)

Note: This is SATELLITE DEBRIS
aabbcc
Your satellite tracking list
Your tracking list is empty




NASA's NSSDC Master Catalog

Two Line Element Set (TLE):
1 12168U 78026H   21271.13088613 -.00000136  00000-0 -64126-4 0  9999
2 12168  98.8503 150.8757 0175076 230.4972 128.0597 13.92445425 61108
Source of the keplerian elements: AFSPC